User: anonymous   Login
Location: Bagnara
(41.0500°N, 14.7833°E)
Time: 17:54:23
(UTC+00:00)
Language:

Cosmos 1538 Rocket - Orbit

View from above orbital plane
View from above orbital plane
View from above satellite
View from above satellite

Ground track
Ground track

The orbit data is extracted from the following two-line orbital elements,

1 14760U 84019B   21264.95841777  .00000025  00000-0  17721-4 0  9992
2 14760  74.0434 143.9907 0028189 339.0185  20.9809 14.35922919966950
Epoch (UTC): 21 September 2021 23:00:07
Eccentricity: 0.0028189
inclination: 74.0434°
perigee height: 752 km
apogee height: 792 km
right ascension of ascending node: 143.9907°
argument of perigee: 339.0185°
revolutions per day: 14.35922919
mean anomaly at epoch: 20.9809°
orbit number at epoch: 96695

The dashed part of the orbit path shows where the satellite is in the earth's shadow,  

DLR